Location: Whitehorse
(60.7170°N, 135.0500°W)
Time: 07:17:23
(UTC-07:00)

SL-16 R/B - Visible Passes

Search period start: 31 October 2014 00:00
Search period end: 09 November 2014 23:00
Orbit: 841 x 850 km, 71.0° (Epoch: 30 October)

Date Brightness Start Highest point End Pass type
(mag) Time Alt. Az. Time Alt. Az. Time Alt. Az.
31 Oct 4.3 00:09:14 10° WNW 00:11:42 22° NW 00:11:42 22° NW visible
31 Oct 3.7 18:43:51 10° SE 18:47:26 17° E 18:51:02 10° ENE visible
31 Oct 2.2 20:24:57 10° SSW 20:30:33 62° ESE 20:34:26 20° NE visible
31 Oct 2.9 22:09:23 10° WSW 22:14:55 50° NW 22:16:20 41° N visible
31 Oct 4.2 23:55:14 10° WNW 23:58:13 25° NW 23:58:13 25° NW visible
01 Nov 2.2 20:11:00 10° SSW 20:16:35 60° ESE 20:20:54 17° NE visible
01 Nov 2.9 21:55:23 10° WSW 22:00:56 51° NW 22:02:48 37° NNE visible
01 Nov 4.1 23:41:14 10° WNW 23:44:41 27° NW 23:44:41 27° NW visible
02 Nov 2.3 18:57:03 10° SSW 19:02:37 59° ESE 19:07:20 15° NE visible
02 Nov 2.9 20:41:24 10° WSW 20:46:57 52° NW 20:49:13 33° NNE visible
02 Nov 3.9 22:27:14 10° WNW 22:31:06 29° NNW 22:31:06 29° NNW visible
03 Nov 5.0 00:12:44 10° NW 00:12:59 11° NW 00:12:59 11° NW visible
03 Nov 2.3 18:43:06 10° SSW 18:48:40 58° ESE 18:53:43 13° NE visible
03 Nov 2.9 20:27:24 10° WSW 20:32:58 52° NW 20:35:36 30° NNE visible
03 Nov 3.8 22:13:14 10° WNW 22:17:29 30° NNW 22:17:29 30° NNW visible
03 Nov 4.9 23:58:45 10° NW 23:59:22 13° NW 23:59:22 13° NW visible
04 Nov 2.3 18:29:09 10° SSW 18:34:42 57° ESE 18:40:04 11° NE visible
04 Nov 2.8 20:13:25 10° WSW 20:18:59 53° NW 20:21:57 27° NNE visible
04 Nov 3.8 21:59:13 10° WNW 22:03:50 31° NNW 22:03:50 31° NNW visible
04 Nov 4.8 23:44:45 10° NW 23:45:43 14° NW 23:45:43 14° NW visible
05 Nov 2.4 18:15:11 10° SSW 18:20:44 56° ESE 18:26:18 10° NE visible
05 Nov 2.8 19:59:25 10° WSW 20:05:00 54° NW 20:08:17 24° NNE visible
05 Nov 3.7 21:45:13 10° WNW 21:50:10 31° NNW 21:50:10 31° NNW visible
05 Nov 4.7 23:30:46 10° NW 23:32:03 16° NW 23:32:03 16° NW visible
06 Nov 2.4 18:01:14 10° SSW 18:06:46 55° ESE 18:12:19 10° NE visible
06 Nov 2.8 19:45:25 10° WSW 19:51:01 55° NW 19:54:36 22° NNE visible
06 Nov 3.6 21:31:13 10° WNW 21:36:16 31° NNW 21:36:29 31° N visible
06 Nov 4.6 23:16:47 10° NW 23:18:21 18° NW 23:18:21 18° NW visible
07 Nov 2.5 17:47:17 10° SSW 17:52:48 53° ESE 17:58:20 10° NE visible
07 Nov 2.8 19:31:26 10° WSW 19:37:02 55° NW 19:40:54 20° NE visible
07 Nov 3.6 21:17:13 10° WNW 21:22:16 31° NNW 21:22:47 31° N visible
07 Nov 4.5 23:02:47 10° NW 23:04:39 19° NW 23:04:39 19° NW visible
08 Nov 2.5 17:33:20 10° SSW 17:38:50 52° ESE 17:44:21 10° NE visible
08 Nov 2.8 19:17:26 10° WSW 19:23:03 56° NW 19:27:11 18° NE visible
08 Nov 3.5 21:03:12 10° WNW 21:08:16 32° NNW 21:09:04 30° N visible
08 Nov 4.4 22:48:48 10° NW 22:50:57 21° NNW 22:50:57 21° NNW visible
09 Nov 2.6 17:19:23 10° SSW 17:24:52 51° ESE 17:30:22 10° NE visible
09 Nov 2.7 19:03:27 10° WSW 19:09:03 57° NW 19:13:28 17° NE visible
09 Nov 3.5 20:49:12 10° WNW 20:54:16 32° NNW 20:55:21 30° N visible
09 Nov 4.3 22:34:49 10° NW 22:37:14 22° NNW 22:37:14 22° NNW visible
